Lexington Weather

Lexington, Massachusetts, USA

78°F
8/3/2020 10:18pm 
  • Lexington Conditions: Clear
  • Temperature: 77.5°F / 25.3°CColder 2.2°F than last hour.
  • Dew Point: 65.7°FDecreased 0.7°Fsince last hour.
  • Relative Humidity: 67%Increased 3.0% since last hour.
  • Wind: Calm, 10-min avg: Calm, gust: None
  • Barometer: 30.00 inRising 0.02  inHg/hr Rising Slowly
  • Visibility: 10 miles
  • Rain Today: 0.00 in
  •   
Southeast Middlesex County - Tropical Storm Warning - Tropical Cyclone Statement
 - SEE ALL NEARBY ALERTS -

Regional Weather Roundup
for Boston / Norton, MA

        
000
ASUS41 KBOX 020604
RWRBOX

REGIONAL WEATHER ROUNDUP
NATIONAL WEATHER SERVICE BOSTON/NORTON MA
200 AM EDT SUN AUG 02 2020

NOTE:  "FAIR" INDICATES FEW OR NO CLOUDS BELOW 12,000 FEET WITH NO 
SIGNIFICANT WEATHER AND/OR OBSTRUCTIONS TO VISIBILITY.

MAZALL-020700-
EASTERN MASSACHUSETTS
  
CITY           SKY/WX    TMP DP  RH WIND       PRES   REMARKS
BOSTON         MOCLDY    72  68  87 S6        29.98S                  
6HR MIN TEMP:  71; 6HR MAX TEMP:  76;                                

BEVERLY        CLEAR     71  67  87 SE3       29.97F                  
LAWRENCE       PTCLDY    71  66  84 CALM      29.99F                  
BEDFORD        PTCLDY    72  68  87 CALM      29.96F                  
BLUE HILL      NOT AVBL                                               
NORWOOD        CLEAR     73  68  84 S5        29.97F                  
MARSHFIELD     CLEAR     73  72  94 SW5       29.98S                  
PLYMOUTH       CLEAR     71  69  93 S5        30.00S                  
TAUNTON        CLEAR     69  66  90 SE3       29.99S                  
NEW BEDFORD    CLEAR     71  70  96 CALM      29.99S                  
$$

MAZALL-020700-
CAPE COD AND THE ISLANDS
  
CITY           SKY/WX    TMP DP  RH WIND       PRES   REMARKS
FALMOUTH       CLEAR     68  66  94 SW6       30.00F                  
HYANNIS        CLEAR     75  68  78 S6        29.99S                  
CHATHAM        CLEAR     73  67  81 SW6       30.01F                  
PROVINCETOWN   CLEAR     72  69  90 S7        30.00F                  
NANTUCKET      CLEAR     68  66  93 S5        30.01S                  
MARTHAS VNYRD  CLEAR     68  67  96 CALM      30.00S                  
$$
 
MAZALL-020700-
CENTRAL AND WESTERN MASSACHUSETTS
  
CITY           SKY/WX    TMP DP  RH WIND       PRES   REMARKS
WORCESTER      PTCLDY    70  62  76 SW9       30.01F                  
6HR MIN TEMP:  70; 6HR MAX TEMP:  81;                                

FITCHBURG      PTCLDY    68  63  84 CALM      29.99S                  
ORANGE         MOCLDY    68  66  93 CALM      29.99F                  
SPRINGFIELD    CLOUDY    74  65  74 S3        29.96S                  
WESTFIELD      CLOUDY    74  63  68 S3        29.97S                  
NORTH ADAMS    CLOUDY    68  62  81 CALM      29.98F                  
PITTSFIELD     CLOUDY    68  63  84 CALM      29.99F                  
$$
 
RIZALL-020700-
RHODE ISLAND
  
CITY           SKY/WX    TMP DP  RH WIND       PRES   REMARKS
PROVIDENCE     CLEAR     72  70  93 S6        30.00S                  
6HR MIN TEMP:  72; 6HR MAX TEMP:  79;                                

NEWPORT        CLEAR     74  71  91 S3        30.00S                  
BLOCK ISLAND   PTCLDY    73  70  90 S6        30.01S                  
SMITHFIELD     CLEAR     70  69  97 CALM      30.01S                  
WESTERLY       PTCLDY    72  68  87 S5        30.00S                  
$$
 
CTZALL-020700-
CONNECTICUT
  
CITY           SKY/WX    TMP DP  RH WIND       PRES   REMARKS
BRADLEY INTL   CLOUDY    75  63  66 S8        29.97S                  
6HR MIN TEMP:  75; 6HR MAX TEMP:  84;                                

HARTFORD       MOCLDY    75  68  78 S5        29.97S                  
BRIDGEPORT     CLOUDY    77  71  82 S3        29.97S                  
DANBURY        CLOUDY    74  69  85 S6        30.00R                  
GROTON         PTCLDY    71  69  93 CALM      29.99S                  
NEW HAVEN      MOCLDY    75  72  90 CALM      29.98S                  
CHESTER        FAIR      73  72  94 SW5       30.01R                  
MERIDEN        MOCLDY    71  66  84 CALM      29.98R                  
WILLIMANTIC    MOCLDY    72  66  81 CALM      29.99F                  
OXFORD         MOCLDY    71  68  90 S5        30.01S                  
$$

MEZ002-015-021-024-NHZ003-005-008-011-012-014-VTZ005-008-020700-
NORTHERN NEW ENGLAND
  
CITY           SKY/WX    TMP DP  RH WIND       PRES   REMARKS
PORTLAND ME    CLEAR     71  61  70 W3        29.98S                  
6HR MIN TEMP:  71; 6HR MAX TEMP:  76;                                

BANGOR ME      PTCLDY    66  63  90 CALM      29.98S                  
CONCORD NH     MOCLDY    67  62  84 CALM      29.98F                  
MANCHESTER NH  PTCLDY    72  63  73 S3        29.96F                  
NASHUA NH      PTCLDY    68  66  93 CALM      29.98F                  
PORTSMOUTH NH  PTCLDY    67  62  81 CALM      29.96F                  
JAFFREY NH     PTCLDY    65  62  90 CALM      30.02S                  
KEENE NH       PTCLDY    64  64 100 CALM      29.99S                  
BURLINGTON VT  MOCLDY    72  62  71 CALM      29.94S                  
MT. WASHINGTON NOT AVBL                                               
$$

NYZ052-076-020700-
EASTERN NEW YORK
  
CITY           SKY/WX    TMP DP  RH WIND       PRES   REMARKS
ALBANY         CLOUDY    73  62  68 S9        29.94F                  
6HR MIN TEMP:  71; 6HR MAX TEMP:  80;                                

NEW YORK CITY  CLOUDY    80  70  71 S9        29.96S                  
6HR MIN TEMP:  80; 6HR MAX TEMP:  82;                                

$$
 
ANZALL-020700-
MARINE OBSERVATIONS
  
STATION/POSITION TIME  TEMP    WIND        PRES    VSBY  WAVE
                       AIR SEA DIR/SP/G                  HT/PER
                 (UTC) (F)     (DEG/KT/KT) (MB)    (MI)  (FT/S)
BOSTON BUOY      0550   72 71  170/  6/  6 1013.9F         1/11
BUZZARDS BAY     0500          200/ 11/ 12 1016.7F
NANTUCKET SOUND  0540      77  210/ 10/ 12   N/A
MASS BAY-STELLWA 0504   72     220/  8/ 10 1012.9F  1 7/8  1/ 3
ISLE OF SHOALS   0500   73     180/ 11/ 12 1014.6F
S OF BLOCK IS    0526      73                N/A           3/11
$$

......................KEY.........................
  SKY/WX - SKY CONDITION/PRESENT WEATHER
  TMP    - TEMPERATURE IN FAHRENHEIT
  DWPT   - DEWPOINT IN FAHRENHEIT
  RH     - RELATIVE HUMIDITY IN PERCENT
  WIND   - DIRECTION AND SPEED IN MPH
  PRES   - MEAN SEA LEVEL PRESSURE IN INCHES OF HG
  WCI    - WIND CHILL INDEX
  VSB    - VISIBILITY IN MILES
  HX     - HEAT INDEX
  TC     - TEMPERATURE IN CELSIUS
  VRB    - VARIABLE WIND DIRECTION
  N/A    - NOT AVAILABLE
  
      

Other recent Regional Weather Roundups

Mon Aug 3, 10:04pm

Mon Aug 3, 9:04pm

Mon Aug 3, 8:05pm

Mon Aug 3, 7:04pm

Mon Aug 3, 6:04pm

Mon Aug 3, 5:04pm

Mon Aug 3, 4:05pm

Mon Aug 3, 3:04pm

Mon Aug 3, 2:04pm

Mon Aug 3, 1:04pm

Mon Aug 3, 12:05pm

Mon Aug 3, 11:04am

Mon Aug 3, 10:04am

Mon Aug 3, 9:05am

Mon Aug 3, 8:04am

Mon Aug 3, 7:04am

Mon Aug 3, 6:04am

Mon Aug 3, 5:04am

Mon Aug 3, 4:04am

Mon Aug 3, 3:04am

Mon Aug 3, 2:04am

Mon Aug 3, 1:04am

Mon Aug 3, 12:05am

Sun Aug 2, 11:04pm

Sun Aug 2, 10:04pm

Sun Aug 2, 9:04pm

Sun Aug 2, 8:04pm

Sun Aug 2, 7:04pm

Sun Aug 2, 6:04pm

Sun Aug 2, 5:04pm

Sun Aug 2, 4:05pm

Sun Aug 2, 3:04pm

Sun Aug 2, 2:05pm

Sun Aug 2, 1:04pm

Sun Aug 2, 12:04pm

Sun Aug 2, 11:04am

Sun Aug 2, 10:04am

Sun Aug 2, 9:05am

Sun Aug 2, 8:05am

Sun Aug 2, 7:04am

Sun Aug 2, 6:04am

Sun Aug 2, 5:04am

Sun Aug 2, 4:05am

Sun Aug 2, 3:04am

Sun Aug 2, 1:04am

Sun Aug 2, 12:05am

Sat Aug 1, 11:04pm

Sat Aug 1, 10:04pm

Sat Aug 1, 9:04pm

Sat Aug 1, 8:05pm

Sat Aug 1, 7:04pm

Sat Aug 1, 6:04pm

Sat Aug 1, 5:05pm

Sat Aug 1, 4:05pm

Sat Aug 1, 3:04pm

Sat Aug 1, 2:04pm

Sat Aug 1, 1:04pm

Sat Aug 1, 12:04pm

Sat Aug 1, 11:05am

Sat Aug 1, 10:05am

Sat Aug 1, 9:04am

Sat Aug 1, 8:04am

Sat Aug 1, 7:04am

Sat Aug 1, 6:04am

Sat Aug 1, 5:04am

Sat Aug 1, 4:05am

Sat Aug 1, 3:04am

Sat Aug 1, 2:04am

Sat Aug 1, 1:04am

Sat Aug 1, 12:05am

Fri Jul 31, 11:05pm

Fri Jul 31, 10:04pm

Fri Jul 31, 9:04pm

Fri Jul 31, 8:05pm

Fri Jul 31, 7:05pm

Fri Jul 31, 6:04pm

Fri Jul 31, 5:04pm

Fri Jul 31, 4:05pm

Fri Jul 31, 3:04pm

Fri Jul 31, 2:05pm

Fri Jul 31, 1:04pm

Fri Jul 31, 12:04pm

Fri Jul 31, 11:04am

Fri Jul 31, 10:04am

Fri Jul 31, 9:04am

Fri Jul 31, 8:04am

Fri Jul 31, 7:04am

Fri Jul 31, 6:04am

Fri Jul 31, 5:04am

Fri Jul 31, 4:04am

Fri Jul 31, 3:04am

Fri Jul 31, 2:04am

Fri Jul 31, 1:05am

Fri Jul 31, 12:04am

Thu Jul 30, 11:04pm

Thu Jul 30, 10:04pm

Thu Jul 30, 9:04pm

Thu Jul 30, 8:04pm

Thu Jul 30, 7:05pm

Thu Jul 30, 6:04pm

Thu Jul 30, 5:04pm

Thu Jul 30, 4:05pm

Thu Jul 30, 3:04pm

Thu Jul 30, 2:05pm

Thu Jul 30, 1:04pm

Thu Jul 30, 12:04pm

Thu Jul 30, 11:04am

Thu Jul 30, 10:05am

Thu Jul 30, 9:04am

Thu Jul 30, 8:04am

Thu Jul 30, 7:04am

Thu Jul 30, 6:04am

Thu Jul 30, 5:04am

Thu Jul 30, 4:04am

Thu Jul 30, 3:04am

Thu Jul 30, 2:04am

Thu Jul 30, 1:04am

Thu Jul 30, 12:04am

Wed Jul 29, 11:04pm

Wed Jul 29, 10:04pm

Wed Jul 29, 9:04pm

Wed Jul 29, 8:04pm

Wed Jul 29, 7:05pm

Wed Jul 29, 6:05pm

Wed Jul 29, 5:04pm

Wed Jul 29, 4:04pm

Wed Jul 29, 3:04pm

Wed Jul 29, 2:04pm

Wed Jul 29, 1:05pm

Wed Jul 29, 12:05pm

Wed Jul 29, 11:04am

Wed Jul 29, 10:04am

Wed Jul 29, 9:04am

Wed Jul 29, 8:04am

Wed Jul 29, 7:04am

Wed Jul 29, 6:04am

Wed Jul 29, 5:04am

Wed Jul 29, 4:04am

Wed Jul 29, 3:04am

Wed Jul 29, 2:04am

Wed Jul 29, 1:04am

Wed Jul 29, 12:05am

Tue Jul 28, 11:05pm

Tue Jul 28, 10:05pm

Tue Jul 28, 9:04pm

Tue Jul 28, 8:04pm

Tue Jul 28, 7:04pm

Tue Jul 28, 6:04pm

Tue Jul 28, 5:04pm

Tue Jul 28, 4:05pm

Tue Jul 28, 3:05pm

Tue Jul 28, 2:04pm

Tue Jul 28, 1:05pm

Tue Jul 28, 12:04pm

Tue Jul 28, 11:04am

Tue Jul 28, 10:04am

Tue Jul 28, 9:04am

Tue Jul 28, 8:04am

Tue Jul 28, 7:04am

Tue Jul 28, 6:04am

Tue Jul 28, 5:04am

Tue Jul 28, 4:04am

Tue Jul 28, 3:04am

Tue Jul 28, 2:04am

Tue Jul 28, 1:04am

Tue Jul 28, 12:05am

Mon Jul 27, 11:04pm

Meta data:

ID: 2f11f6f9-aebd-446f-ae1b-74b7657a21d8
Link: https://api.weather.gov/products/2f11f6f9-aebd-446f-ae1b-74b7657a21d8